Weather History for KBVE - April, 2013

Change the Weather History Date:

Friday, April 5, 2013

  Actual Average Record
Temperature  
Mean Temperature 57 °F -  
Max Temperature 62 °F - - ()
Min Temperature 52 °F - - ()
Degree Days  
Heating Degree Days 8    
Growing Degree Days 7 (Base 50)    
Moisture  
Dew Point 49 °F    
Average Humidity 77    
Maximum Humidity 93    
Minimum Humidity 63    
Precipitation  
Precipitation 0.00 in - - ()
Sea Level Pressure  
Sea Level Pressure 30.09 in    
Wind  
Wind Speed 11 mph (NNW)    
Max Wind Speed 15 mph    
Max Gust Speed 23 mph    
Visibility 10 miles    
Events      
T = Trace of Precipitation, MM = Missing Value Source: NWS Daily Summary

Daily Weather History Graph

Daily Weather History Graph

Search for Another Location

Airport or City:

Trip Planner

Search our weather history database for the weather conditions in past years. The results will help you decide how hot, cold, wet, or windy it might be!

Date:

Astronomy

Apr. 05, 2013 Rise Set
Actual Time 6:42 AM CDT 7:18 PM CDT
Civil Twilight 6:18 AM CDT 7:42 PM CDT
Nautical Twilight 5:50 AM CDT 8:10 PM CDT
Astronomical Twilight 5:21 AM CDT 8:39 PM CDT
Moon 3:28 AM CDT (4/5) 3:01 PM CDT (4/5)
Length of Visible Light 13h 24m
Length of Day
12h 36m
Waning Crescent, 23% of the Moon is Illuminated
Apr 5
Waning Crescent
Apr 10
New
Apr 18
First Quarter
Apr 25
Full
May 2
Last Quarter

Hourly Weather History & Observations

Time (CDT) Temp. Dew Point Humidity Pressure Visibility Wind Dir Wind Speed Gust Speed Precip Events Conditions
12:51 AM 54.0 °F 48.9 °F 83% 30.02 in 10.0 mi NW 15.0 mph - N/A   Overcast
1:51 AM 54.0 °F 48.0 °F 80% 30.02 in 10.0 mi NW 11.5 mph - N/A   Overcast
2:51 AM 53.1 °F 48.0 °F 83% 30.02 in 10.0 mi NW 9.2 mph - N/A   Overcast
3:51 AM 53.1 °F 46.9 °F 80% 30.03 in 10.0 mi NNW 13.8 mph - N/A   Overcast
4:51 AM 53.1 °F 46.9 °F 80% 30.03 in 10.0 mi NW 12.7 mph - N/A   Overcast
5:51 AM 53.1 °F 46.9 °F 80% 30.05 in 10.0 mi NW 15.0 mph 20.7 mph N/A   Overcast
6:51 AM 52.0 °F 46.9 °F 83% 30.06 in 10.0 mi NW 15.0 mph 23.0 mph N/A   Overcast
7:51 AM 52.0 °F 46.0 °F 80% 30.09 in 10.0 mi NW 15.0 mph 21.9 mph N/A   Overcast
8:51 AM 52.0 °F 46.9 °F 83% 30.12 in 10.0 mi NNW 11.5 mph - N/A   Overcast
9:51 AM 53.1 °F 46.9 °F 80% 30.13 in 10.0 mi NNW 13.8 mph - N/A   Overcast
10:51 AM 53.1 °F 46.9 °F 80% 30.14 in 10.0 mi NNW 12.7 mph - N/A   Overcast
11:51 AM 54.0 °F 48.0 °F 80% 30.13 in 10.0 mi North 9.2 mph - N/A   Overcast
12:51 PM 57.9 °F 50.0 °F 75% 30.13 in 10.0 mi North 10.4 mph 17.3 mph N/A   Scattered Clouds
1:05 PM 57.2 °F 50.0 °F 77% 30.12 in 10.0 mi North 9.2 mph 19.6 mph N/A   Mostly Cloudy
1:29 PM 60.8 °F 51.8 °F 72% 30.11 in 10.0 mi North 6.9 mph - N/A   Scattered Clouds
1:51 PM 59.0 °F 50.0 °F 72% 30.11 in 10.0 mi NNW 12.7 mph 18.4 mph N/A   Mostly Cloudy
2:51 PM 59.0 °F 48.9 °F 69% 30.09 in 10.0 mi NNW 12.7 mph - N/A   Mostly Cloudy
3:04 PM 60.8 °F 48.2 °F 63% 30.09 in 10.0 mi NNW 13.8 mph - N/A   Scattered Clouds
3:36 PM 59.0 °F 48.2 °F 67% 30.08 in 10.0 mi NNW 10.4 mph 17.3 mph N/A   Mostly Cloudy
3:51 PM 60.1 °F 50.0 °F 69% 30.08 in 10.0 mi NNW 8.1 mph - N/A   Mostly Cloudy
4:25 PM 60.8 °F 50.0 °F 68% 30.07 in 10.0 mi NNW 11.5 mph - N/A   Scattered Clouds
4:51 PM 61.0 °F 50.0 °F 67% 30.07 in 10.0 mi NNW 8.1 mph - N/A   Clear
5:51 PM 62.1 °F 50.0 °F 65% 30.06 in 10.0 mi Variable 3.5 mph - N/A   Clear
6:51 PM 61.0 °F 50.0 °F 67% 30.07 in 10.0 mi Calm Calm - N/A   Clear
7:51 PM 59.0 °F 50.0 °F 72% 30.08 in 10.0 mi Calm Calm - N/A   Clear
8:51 PM 55.0 °F 52.0 °F 89% 30.11 in 10.0 mi WNW 4.6 mph - N/A   Clear
9:51 PM 57.9 °F 51.1 °F 78% 30.12 in 10.0 mi NW 4.6 mph - N/A   Clear
10:51 PM 54.0 °F 52.0 °F 93% 30.14 in 10.0 mi WNW 4.6 mph - N/A   Clear
11:51 PM 54.0 °F 52.0 °F 93% 30.14 in 10.0 mi WNW 4.6 mph - N/A   Clear